Wetbulb
61.35 60.62 60.11 59.29 58.93 57.44 56.74 54.75 51.25 48.62 45.59 40.94 38.92 38.35 37.62 37.23 37.21 39.17 40.19 47.13 53.72 56.84 59.20 59.72 60.57 60.57 60.69 60.95 61.23 61.30 60.53 60.37 57.77 57.48 56.92 57.99 58.43 58.37 59.76 59.80 59.60 59.65 60.04
59.10 58.97 58.56 56.37 57.72 57.03 55.61 53.77 51.56 48.17 45.19 39.91 38.89 38.19 37.59 37.14 37.32 38.04 40.47 41.95 50.84 55.59 58.05 59.99 60.29 60.75 61.27 61.64 61.13 61.03 61.32 60.89 58.99 57.23 56.12 56.25 57.44 57.68 58.22 58.69 56.86 56.75 57.65
59.61 59.51 58.47 57.41 57.36 55.89 54.05 52.04 49.76 47.04 44.32 39.67 37.95 37.33 36.97 36.95 37.07 37.48 38.63 41.37 44.20 50.28 54.22 58.24 59.08 60.38 61.29 62.29 61.55 62.83 62.69 60.12 58.41 57.18 55.43 55.69 56.75 57.37 57.36 56.96 55.69 55.99 56.25
60.55 58.74 57.69 56.44 56.03 54.47 53.20 51.44 49.06 46.82 44.90 42.09 38.99 36.78 35.60 35.79 36.55 36.91 37.04 38.92 41.97 44.45 48.23 53.28 55.95 57.18 59.12 61.62 61.79 61.50 62.20 60.29 58.18 58.18 56.22 55.78 56.03 56.67 56.23 55.77 55.40 56.03 55.70
57.02 57.24 55.68 54.79 54.61 52.96 51.51 49.85 46.61 45.83 44.83 42.96 40.75 38.80 35.47 34.76 35.33 37.05 35.95 36.70 38.25 42.33 42.51 47.28 51.13 51.48 54.17 57.94 60.37 61.97 61.66 60.90 60.12 58.90 56.08 55.49 55.35 55.40 55.53 55.37 55.22 55.12 55.12
50.87 52.61 52.60 51.87 52.17 51.33 49.65 48.39 46.47 43.09 41.40 40.59 39.80 38.79 35.75 35.08 34.85 34.83 35.07 36.18 36.34 37.78 38.15 39.90 41.27 43.31 49.20 54.20 57.53 60.55 61.94 60.78 61.04 58.46 56.78 56.01 55.12 54.68 55.19 54.64 55.06 54.71 54.77
43.00 45.19 46.81 46.72 47.89 47.33 46.70 45.69 43.51 42.81 41.85 38.87 39.00 39.67 38.12 36.25 34.54 34.60 34.44 34.24 34.62 35.52 35.53 36.44 38.27 38.96 40.68 49.16 53.40 57.14 60.78 60.43 61.25 59.76 57.85 56.20 55.91 54.66 54.71 54.55 54.35 54.85 55.16
37.74 38.70 40.04 41.60 42.26 43.11 41.68 41.43 40.52 40.07 39.74 38.67 38.22 35.80 34.68 35.31 33.80 33.45 33.04 34.03 33.65 33.62 34.17 34.90 34.64 35.87 36.75 38.48 42.95 52.03 55.68 59.49 60.32 60.03 58.73 56.72 55.71 55.01 54.68 54.56 54.50 54.87 55.10
34.49 35.80 35.97 36.57 37.07 38.19 38.54 39.36 40.10 39.10 38.81 38.54 37.50 37.58 35.52 33.41 31.32 33.18 32.87 32.48 32.67 32.72 33.37 33.40 34.04 34.50 35.07 35.55 40.30 43.74 49.62 53.57 57.28 59.22 59.51 58.01 56.26 55.37 54.34 54.30 54.33 54.44 54.68
31.57 32.18 32.70 33.12 33.95 34.62 34.25 35.58 38.06 37.07 36.10 35.30 37.91 37.33 35.68 34.87 32.78 30.22 32.41 34.10 32.09 32.50 32.43 32.46 33.01 33.56 34.15 34.46 38.03 41.79 44.92 48.21 51.04 53.69 56.86 58.44 57.09 55.46 54.48 53.95 53.96 54.13 54.11
30.04 30.36 30.44 30.41 30.55 31.13 31.39 32.06 33.26 34.32 35.62 34.71 34.72 35.90 35.09 34.60 34.22 32.16 31.03 31.07 33.13 33.66 32.67 32.48 32.72 32.52 33.39 33.65 33.92 37.03 42.85 45.69 48.21 50.70 52.65 54.74 57.25 55.43 54.42 53.80 53.82 53.89 54.05
28.10 28.15 28.87 28.53 28.84 28.87 28.87 29.59 29.44 30.46 30.70 32.09 32.67 33.63 33.58 34.24 33.88 33.67 32.66 34.03 33.34 33.97 31.89 32.27 31.55 32.03 32.58 32.41 35.39 39.41 41.87 44.41 46.70 49.10 52.44 54.52 55.62 54.48 53.84 53.19 53.12 53.59 53.77
25.13 25.54 26.19 26.00 26.35 26.69 27.08 27.24 26.33 26.97 27.11 27.42 28.18 30.12 31.90 32.47 33.59 32.99 32.21 31.87 31.44 32.06 31.61 30.65 32.22 31.90 33.33 32.20 32.90 37.17 39.72 42.77 45.14 47.35 51.78 53.38 54.04 53.19 52.52 52.33 52.14 52.35 53.04
24.57 24.72 24.41 24.34 24.51 25.05 25.00 24.71 24.64 24.80 24.78 25.15 24.39 25.71 28.35 29.46 31.24 31.82 31.33 29.52 28.96 31.01 33.52 33.27 30.10 31.39 31.64 32.03 33.30 37.65 35.47 40.34 43.23 45.61 49.12 51.86 52.02 51.94 51.38 51.34 51.26 50.96 51.67
26.11 24.46 24.15 23.65 23.65 23.94 24.15 23.68 23.16 23.08 23.45 23.74 23.75 24.68 25.37 26.25 28.46 28.82 29.79 29.61 28.85 27.04 27.57 31.27 30.43 31.42 31.45 31.19 32.63 32.56 32.62 37.13 40.83 43.34 47.05 50.63 50.99 50.51 50.64 50.61 50.39 50.17 50.67
24.32 24.09 23.88 23.53 23.28 23.31 23.07 22.41 22.36 22.83 22.43 22.23 23.43 22.85 23.38 24.48 25.33 25.99 26.88 27.67 28.11 28.13 25.48 29.75 31.45 31.62 32.31 33.49 32.73 32.82 32.46 36.35 38.35 40.52 43.74 46.98 49.44 49.59 49.56 49.02 49.05 48.91 49.40
23.19 23.31 23.65 23.25 22.78 22.29 22.19 21.18 21.05 21.65 21.02 21.44 21.76 22.19 23.11 23.76 23.90 24.60 25.14 25.31 25.56 25.90 24.86 26.91 29.76 31.48 30.31 30.37 32.63 31.49 31.85 32.41 33.75 38.17 40.42 43.27 46.34 47.96 48.42 48.10 47.61 47.65 47.99
23.34 23.13 23.18 22.66 22.23 21.88 21.76 21.02 20.78 20.73 20.25 20.72 21.48 21.86 22.02 24.40 22.63 23.33 23.78 23.77 24.26 25.17 24.75 23.22 26.45 27.79 28.63 30.61 29.41 29.77 31.69 31.68 31.91 35.72 38.95 40.67 43.35 45.34 46.52 46.75 46.56 46.57 46.86
21.76 21.63 21.21 20.36 20.14 20.27 20.18 20.29 20.62 21.26 21.38 21.48 21.84 21.73 21.82 21.91 21.59 22.08 22.31 22.65 23.50 25.27 24.88 24.25 24.38 27.40 28.29 29.10 29.08 28.89 29.01 30.34 31.07 34.90 38.03 39.23 40.38 43.12 44.98 45.71 45.45 44.98 44.64
19.27 18.69 18.86 18.85 18.84 18.86 19.30 20.21 20.60 20.14 19.83 20.34 20.68 20.75 20.79 20.92 20.84 20.87 21.54 21.87 23.15 23.44 24.30 24.08 24.06 24.61 26.04 28.04 26.49 27.27 28.06 27.59 29.16 30.98 33.56 35.45 37.51 39.63 42.66 44.54 44.31 43.06 43.03
18.09 17.84 17.27 16.80 17.11 17.45 20.11 19.39 19.64 19.12 18.58 18.48 18.98 19.38 19.64 20.32 22.51 22.52 21.19 20.77 21.58 21.58 21.76 21.82 21.65 23.04 24.23 24.96 25.10 27.48 26.80 28.38 28.84 29.60 29.60 29.50 31.32 33.27 36.29 41.30 41.13 41.43 42.64
15.72 15.50 14.88 14.25 13.54 16.34 19.51 21.22 21.19 18.53 17.66 16.67 15.71 16.52 17.04 17.29 18.78 20.81 21.84 22.67 22.42 19.82 19.27 20.41 21.59 22.10 23.54 25.47 27.28 26.79 27.02 26.52 25.27 28.11 28.31 29.09 29.32 29.81 32.43 35.63 39.86 41.84 42.33
13.39 12.52 12.35 12.20 11.54 12.11 18.18 20.35 20.28 17.43 16.19 15.33 14.96 14.77 15.07 16.57 16.04 16.05 17.70 19.58 19.94 20.77 21.96 19.28 17.49 18.32 19.34 22.26 24.56 26.28 27.77 27.01 26.95 29.39 27.01 26.65 28.03 27.51 30.57 33.09 38.53 40.78 41.69
10.52 10.01 9.96 9.67 10.11 11.48 16.91 18.09 18.80 16.21 14.30 14.14 14.13 14.18 13.85 14.02 14.80 15.59 15.64 15.83 16.81 17.92 18.99 19.33 18.30 18.20 19.19 20.32 20.49 21.82 23.51 26.35 28.58 30.05 28.18 25.93 27.33 27.69 29.27 30.63 36.04 38.92 40.33
7.68 6.63 9.40 7.45 6.61 7.43 13.85 16.58 16.67 13.99 13.56 13.20 13.89 14.12 14.07 13.75 16.46 19.20 17.32 16.18 16.58 17.40 21.01 22.69 23.37 24.26 25.04 25.66 25.72 23.41 21.08 21.08 21.21 24.55 29.60 27.34 28.83 28.73 26.87 28.19 30.60 36.19 38.75
7.42 7.76 7.27 6.50 5.93 4.39 11.04 14.74 15.97 13.99 11.50 12.37 12.96 14.23 17.23 17.39 19.93 21.33 18.24 16.62 14.55 15.68 16.77 16.25 17.40 19.36 21.36 20.57 23.32 21.10 19.60 17.61 19.83 20.59 28.96 26.53 27.09 25.80 21.34 25.22 28.95 30.17 32.97
MSLP
1020.25 1020.55 1020.92 1021.31 1021.66 1021.88 1022.05 1022.35 1022.84 1023.34 1023.58 1023.68 1023.80 1023.94 1024.04 1024.08 1024.11 1024.14 1024.09 1023.83 1023.58 1023.24 1022.94 1022.57 1022.33 1022.28 1022.29 1022.34 1022.37 1022.32 1022.45 1022.53 1022.88 1023.02 1023.29 1023.20 1022.80 1022.77 1022.69 1022.65 1022.59 1022.63 1022.66
1020.25 1020.50 1020.78 1021.21 1021.53 1021.76 1022.08 1022.44 1022.75 1023.21 1023.60 1023.89 1023.94 1023.95 1023.95 1023.98 1023.99 1023.99 1023.90 1023.77 1023.55 1023.38 1023.13 1022.67 1022.29 1022.20 1022.22 1022.21 1022.19 1022.16 1022.27 1022.44 1022.72 1022.99 1023.17 1023.35 1023.21 1023.12 1022.93 1022.74 1022.96 1023.13 1023.02
1020.10 1020.26 1020.56 1020.93 1021.10 1021.55 1021.95 1022.44 1023.05 1023.25 1023.47 1023.83 1024.13 1024.24 1024.32 1024.28 1024.18 1024.08 1024.05 1023.95 1023.76 1023.50 1023.25 1022.89 1022.66 1022.50 1022.22 1022.02 1022.02 1022.01 1022.05 1022.39 1022.66 1023.00 1023.32 1023.24 1023.23 1023.19 1023.12 1022.99 1023.18 1023.23 1023.18
1020.46 1020.66 1020.96 1021.28 1021.49 1021.75 1022.02 1022.34 1022.85 1023.36 1023.68 1023.90 1024.15 1024.32 1024.37 1024.31 1024.27 1024.19 1024.14 1024.05 1023.95 1023.78 1023.54 1023.26 1023.04 1022.85 1022.66 1022.29 1021.98 1022.04 1022.11 1022.41 1022.70 1022.90 1022.96 1023.26 1023.22 1023.15 1023.17 1023.15 1023.33 1023.32 1023.37
1021.38 1021.31 1021.46 1021.69 1021.85 1022.10 1022.40 1022.81 1023.43 1023.78 1023.92 1024.03 1024.19 1024.29 1024.37 1024.33 1024.16 1023.97 1023.99 1023.96 1023.94 1023.83 1023.81 1023.64 1023.43 1023.27 1023.01 1022.66 1022.34 1021.89 1021.84 1022.02 1022.32 1022.57 1022.84 1023.12 1023.16 1023.14 1023.09 1023.25 1023.29 1023.30 1023.39
1022.56 1022.24 1022.42 1022.55 1022.54 1022.65 1023.07 1023.31 1023.63 1023.98 1024.17 1024.22 1024.16 1024.02 1024.09 1024.07 1024.06 1023.96 1023.77 1023.72 1023.70 1023.67 1023.66 1023.66 1023.65 1023.51 1023.28 1023.01 1022.63 1022.14 1021.53 1021.69 1021.89 1022.16 1022.49 1022.88 1023.08 1023.22 1023.20 1023.31 1023.23 1023.13 1023.16
1023.84 1023.82 1023.59 1023.48 1023.49 1023.56 1023.83 1023.84 1023.98 1024.14 1024.28 1024.29 1024.01 1023.99 1023.78 1023.60 1023.74 1023.72 1023.83 1023.80 1023.75 1023.80 1023.80 1023.74 1023.68 1023.59 1023.43 1023.09 1022.82 1022.44 1021.78 1021.49 1021.69 1021.65 1022.03 1022.35 1022.78 1022.99 1022.99 1023.15 1023.16 1023.07 1022.94
1025.22 1024.92 1024.96 1024.92 1024.58 1024.47 1024.61 1024.68 1024.58 1024.53 1024.59 1024.63 1024.79 1024.73 1024.41 1024.01 1023.70 1023.63 1023.68 1023.64 1023.54 1023.61 1023.58 1023.52 1023.48 1023.39 1023.31 1023.20 1023.02 1022.58 1022.30 1021.91 1021.39 1021.23 1021.48 1021.97 1022.53 1022.68 1022.78 1022.83 1022.83 1022.75 1022.66
1026.10 1026.06 1026.15 1025.98 1025.83 1025.39 1025.51 1025.42 1025.23 1025.25 1025.29 1025.11 1025.02 1025.29 1025.32 1025.16 1024.65 1023.68 1023.57 1023.58 1023.61 1023.61 1023.27 1023.14 1023.07 1023.05 1022.99 1022.94 1022.80 1022.62 1022.39 1022.15 1021.78 1021.42 1021.13 1021.24 1022.06 1022.33 1022.50 1022.50 1022.48 1022.47 1022.39
1026.91 1026.91 1026.78 1026.86 1026.96 1026.94 1026.55 1026.25 1025.99 1026.08 1025.88 1026.09 1025.59 1025.62 1025.78 1025.93 1025.72 1024.59 1023.85 1023.52 1023.53 1023.63 1023.53 1023.29 1023.02 1022.75 1022.57 1022.45 1022.30 1022.18 1022.15 1022.04 1021.93 1021.71 1021.39 1021.11 1021.27 1021.90 1022.17 1022.20 1022.13 1022.10 1022.15
1027.76 1027.70 1027.49 1027.63 1027.57 1027.93 1027.77 1027.31 1026.99 1026.84 1026.96 1026.94 1026.82 1026.58 1026.19 1025.98 1025.86 1025.98 1024.51 1023.89 1023.62 1023.20 1023.04 1022.93 1022.70 1022.44 1022.08 1021.91 1021.84 1021.73 1021.63 1021.54 1021.46 1021.39 1021.16 1020.91 1020.65 1021.23 1021.68 1021.87 1021.82 1021.73 1021.69
1028.63 1028.49 1028.51 1028.48 1028.34 1028.46 1028.75 1028.70 1027.80 1027.63 1027.67 1027.53 1027.55 1027.44 1027.28 1027.09 1026.65 1026.44 1025.61 1024.65 1024.01 1023.02 1022.75 1022.52 1022.34 1022.01 1021.58 1021.42 1021.24 1020.96 1020.90 1020.89 1020.82 1020.77 1020.66 1020.42 1020.25 1020.69 1021.07 1021.30 1021.43 1021.41 1021.36
1029.49 1029.45 1029.50 1029.36 1029.28 1029.36 1028.95 1029.56 1028.91 1028.30 1028.43 1028.25 1028.24 1027.89 1027.56 1027.35 1027.07 1026.66 1026.18 1025.38 1024.21 1023.39 1022.88 1022.20 1021.78 1021.51 1021.13 1020.85 1020.66 1020.59 1020.50 1020.40 1020.33 1020.25 1020.05 1019.88 1019.96 1020.22 1020.53 1020.75 1020.96 1020.99 1020.97
1030.07 1030.02 1029.91 1029.78 1029.74 1029.82 1029.83 1029.66 1029.50 1028.69 1028.72 1028.55 1028.28 1028.19 1027.94 1027.54 1027.21 1026.99 1026.56 1025.99 1024.67 1023.53 1022.83 1022.35 1021.72 1021.28 1020.83 1020.42 1020.28 1020.12 1020.25 1020.09 1019.84 1019.58 1019.68 1019.59 1019.58 1019.76 1020.02 1020.28 1020.45 1020.55 1020.56
1030.12 1030.24 1030.22 1030.24 1030.28 1030.03 1029.80 1029.85 1029.64 1029.08 1028.95 1028.57 1028.26 1027.96 1027.88 1027.46 1027.19 1026.87 1026.64 1026.37 1025.87 1024.35 1022.25 1021.64 1021.87 1020.91 1020.82 1020.49 1020.09 1019.78 1019.65 1019.42 1019.42 1019.36 1019.07 1018.97 1019.04 1019.23 1019.41 1019.60 1019.80 1020.00 1020.04
1030.65 1030.62 1030.64 1030.56 1030.47 1030.22 1030.13 1029.86 1029.45 1029.05 1028.73 1028.32 1028.02 1027.82 1027.68 1027.29 1026.94 1026.52 1026.23 1026.00 1025.64 1025.27 1023.67 1021.89 1021.01 1020.77 1020.39 1019.94 1019.64 1019.42 1019.13 1018.73 1018.58 1018.70 1018.72 1018.44 1018.28 1018.39 1018.57 1018.81 1018.94 1019.16 1019.37
1030.82 1030.82 1030.67 1030.58 1030.34 1030.15 1029.86 1029.69 1029.35 1028.89 1028.53 1028.15 1027.88 1027.72 1027.46 1027.14 1026.65 1026.25 1025.85 1025.66 1025.16 1024.80 1023.65 1022.14 1021.07 1020.25 1020.03 1019.63 1019.17 1018.82 1018.60 1018.43 1017.99 1017.77 1017.84 1017.82 1017.65 1017.54 1017.67 1017.88 1018.06 1018.20 1018.48
1030.63 1030.61 1030.44 1030.36 1030.15 1029.88 1029.60 1029.27 1028.92 1028.60 1028.38 1028.05 1027.76 1027.50 1027.07 1026.69 1026.29 1025.95 1025.64 1025.06 1024.47 1023.97 1023.40 1022.02 1021.47 1020.32 1019.69 1019.38 1018.86 1018.43 1018.01 1017.71 1017.51 1017.13 1016.76 1016.73 1016.77 1016.73 1016.67 1016.72 1017.01 1017.30 1017.63
1030.47 1030.43 1030.29 1030.19 1029.99 1029.72 1029.33 1028.99 1028.70 1028.46 1028.22 1027.93 1027.55 1027.16 1026.71 1026.39 1025.95 1025.60 1025.20 1024.49 1023.87 1023.21 1022.60 1021.72 1020.69 1020.50 1019.60 1019.13 1018.37 1017.80 1017.45 1017.06 1016.60 1016.31 1015.94 1015.64 1015.70 1015.83 1015.74 1015.78 1016.05 1016.30 1016.57
1030.25 1030.19 1030.07 1029.96 1029.83 1029.60 1029.19 1028.73 1028.49 1028.27 1028.01 1027.67 1027.35 1027.00 1026.60 1026.20 1025.67 1025.14 1024.52 1023.92 1023.37 1022.70 1022.12 1021.37 1020.32 1019.91 1019.48 1018.69 1018.17 1017.61 1016.77 1016.50 1015.88 1015.53 1015.11 1014.92 1014.73 1014.42 1014.51 1014.59 1015.06 1015.55 1015.62
1029.98 1029.95 1029.85 1029.88 1029.79 1029.52 1028.83 1028.72 1028.43 1028.06 1027.70 1027.17 1026.89 1026.57 1026.14 1025.74 1025.20 1024.62 1024.04 1023.29 1022.93 1022.32 1021.71 1020.88 1019.82 1019.29 1018.44 1018.39 1017.92 1017.06 1016.16 1015.71 1014.85 1014.74 1014.40 1014.06 1014.24 1013.81 1013.40 1013.49 1013.64 1014.28 1014.94
1030.03 1029.98 1029.93 1029.91 1029.78 1029.47 1029.16 1028.69 1028.21 1027.80 1027.45 1027.01 1026.39 1026.05 1025.86 1025.37 1024.74 1024.21 1023.69 1023.13 1022.60 1021.82 1021.19 1020.49 1019.39 1018.71 1017.90 1017.73 1017.28 1016.69 1015.93 1015.51 1014.26 1013.46 1013.68 1012.93 1013.16 1012.60 1012.32 1012.21 1012.28 1012.80 1013.48
1030.12 1030.10 1030.05 1029.97 1029.74 1029.61 1028.95 1028.33 1027.96 1027.57 1027.08 1026.67 1026.24 1025.73 1025.20 1024.83 1024.49 1023.92 1023.44 1022.82 1022.21 1021.88 1021.26 1020.60 1019.57 1018.89 1018.26 1017.87 1017.41 1016.48 1015.64 1014.89 1013.62 1013.10 1013.44 1012.32 1012.34 1011.65 1011.42 1011.40 1011.45 1011.59 1011.78
1030.29 1030.22 1030.10 1030.08 1029.81 1029.46 1028.72 1028.24 1027.65 1027.12 1026.74 1026.34 1025.93 1025.42 1024.83 1024.21 1023.86 1023.23 1022.47 1021.76 1021.22 1020.83 1020.48 1019.94 1019.18 1018.37 1017.93 1017.64 1017.26 1016.66 1015.78 1014.62 1013.26 1012.41 1012.32 1011.34 1011.33 1010.41 1010.72 1010.56 1010.55 1010.58 1010.89
1030.37 1030.34 1030.17 1029.98 1029.81 1029.35 1028.71 1027.89 1027.28 1026.73 1026.09 1025.65 1025.32 1024.82 1024.14 1023.45 1022.99 1022.12 1021.09 1020.43 1019.90 1019.44 1019.14 1018.46 1017.67 1017.00 1016.36 1015.98 1015.62 1015.45 1014.59 1014.19 1012.07 1011.14 1011.38 1010.75 1009.78 1009.59 1009.64 1009.47 1009.30 1009.43 1009.62
1030.40 1030.26 1029.98 1029.90 1029.69 1029.25 1028.60 1027.71 1026.84 1026.07 1025.30 1024.75 1024.28 1023.56 1022.97 1022.18 1021.40 1020.59 1019.86 1019.30 1018.43 1017.89 1017.49 1016.87 1016.25 1015.67 1015.29 1015.01 1014.85 1014.70 1014.27 1013.27 1012.06 1010.83 1009.63 1009.58 1009.01 1009.54 1009.18 1008.08 1008.23 1008.39 1008.55
Wind_Speed
3 4 4 3 3 3 3 4 4 2 1 0 1 1 2 3 3 2 2 8 10 10 10 9 7 6 6 6 6 6 4 5 3 3 5 8 6 4 4 2 4 5 6
4 4 3 4 3 3 2 2 3 3 2 1 2 1 2 2 3 3 3 4 9 10 11 10 8 8 7 8 6 7 7 6 6 1 2 5 8 6 5 5 3 5 6
2 3 4 4 4 4 4 4 2 1 1 1 3 3 3 4 4 4 3 3 4 8 9 8 7 9 10 10 8 11 9 3 5 3 2 4 5 5 6 4 3 5 4
3 1 1 2 2 1 2 2 3 1 1 1 2 3 3 3 5 5 4 4 4 4 7 9 9 8 9 12 11 8 6 6 6 8 4 7 5 4 3 3 4 7 6
9 5 4 4 4 3 3 3 3 3 2 1 3 3 4 4 5 3 5 5 5 5 4 9 11 11 12 11 12 15 11 12 11 9 5 7 7 8 7 5 6 7 5
14 10 8 7 5 4 3 3 3 2 1 2 3 3 4 4 4 5 5 4 5 5 5 5 4 5 12 14 14 14 12 13 12 9 7 9 9 9 10 9 9 8 8
14 12 8 9 8 7 5 4 2 2 1 1 2 2 3 4 5 5 3 4 5 5 5 5 4 3 5 13 14 15 14 13 13 12 11 11 11 10 11 11 11 10 9
13 12 11 9 10 7 8 6 5 3 2 3 3 2 4 5 3 2 2 4 6 3 5 5 6 6 5 4 8 16 16 17 19 15 14 13 13 12 12 12 13 13 12
13 12 12 10 9 8 8 8 8 7 4 3 3 1 4 3 4 2 3 3 4 4 5 5 6 6 6 5 8 11 16 17 18 19 19 15 15 15 14 14 13 13 12
12 12 12 11 10 7 9 7 7 4 4 4 3 2 1 1 3 6 2 4 3 5 5 4 5 6 6 5 9 12 15 17 18 19 20 20 17 16 15 15 14 14 13
11 11 11 11 11 8 8 9 8 9 6 4 3 4 2 1 2 3 8 4 4 4 4 5 5 5 6 6 6 9 17 18 18 17 19 21 19 18 16 16 16 15 15
7 10 9 8 8 8 9 8 7 8 7 4 3 4 3 3 4 4 5 10 11 6 4 5 5 5 5 5 9 15 18 19 20 19 18 19 18 19 17 16 17 17 17
4 7 7 7 6 6 6 6 6 6 6 5 6 4 2 2 2 3 5 8 7 4 5 4 5 4 5 5 6 12 15 20 21 20 17 16 18 19 18 17 18 19 19
4 5 5 6 7 6 6 5 3 4 5 4 6 4 4 4 3 3 3 3 9 7 6 8 2 5 5 5 7 13 8 18 22 22 20 17 18 20 19 19 20 20 21
5 6 7 7 6 6 6 6 4 5 5 4 5 4 4 4 3 3 4 3 3 7 11 1 3 3 5 4 8 6 6 13 21 23 21 21 22 23 22 22 22 22 23
5 6 6 5 5 5 5 5 5 5 5 3 4 6 5 4 6 4 4 4 4 6 9 4 7 5 5 6 7 8 9 15 18 21 23 24 23 25 24 24 23 23 24
3 3 4 4 5 5 5 5 5 6 7 8 6 5 8 6 6 6 5 5 6 5 10 10 10 10 7 8 9 7 7 8 8 18 23 25 26 25 25 24 25 24 25
3 4 4 4 4 5 5 5 7 6 6 9 9 9 10 7 8 7 7 10 9 8 9 15 11 12 12 10 8 9 9 7 8 14 21 24 26 27 27 27 26 24 23
3 3 3 3 5 6 7 7 6 7 8 9 10 10 12 11 11 9 9 10 9 9 10 11 12 9 11 9 10 8 8 10 7 16 22 24 24 26 28 28 27 26 24
2 3 3 4 5 7 8 6 9 11 11 11 11 12 12 12 13 12 11 12 11 10 10 11 11 10 10 10 5 9 11 5 8 7 14 17 17 22 28 29 29 26 26
4 4 6 5 6 7 7 11 11 12 12 13 12 12 11 14 24 22 14 14 14 12 10 11 13 12 11 9 9 7 10 9 8 7 8 8 8 10 13 25 24 26 26
4 5 6 6 7 8 17 18 16 12 13 13 14 13 12 14 16 22 24 28 25 17 15 11 12 13 15 13 10 10 11 10 13 5 8 11 8 10 10 11 22 28 28
4 5 5 7 8 8 17 21 22 12 13 13 14 14 14 11 13 13 19 24 22 24 26 18 18 17 17 14 13 14 12 12 14 9 6 10 5 11 9 11 25 28 30
4 6 7 7 8 8 20 21 22 13 12 13 13 14 14 15 14 16 16 16 15 14 15 13 16 16 17 15 15 16 18 17 14 12 7 15 5 11 6 9 24 27 29
4 5 6 6 8 10 20 21 19 12 12 13 13 13 14 15 21 26 18 16 14 14 17 27 30 32 33 32 28 13 12 14 17 15 13 13 13 12 6 9 11 28 29
7 7 7 7 9 11 18 20 18 9 11 10 12 14 19 21 26 27 18 15 16 15 15 15 16 21 24 20 28 18 13 15 15 17 13 12 13 7 6 6 9 10 12
Wind_Direction
173 162 173 168 174 168 177 174 156 158 159 150 58 15 334 333 328 312 309 324 330 326 317 290 276 279 280 275 265 253 240 221 20 342 349 331 322 321 321 6 7 1 341
181 179 160 168 179 188 157 167 172 175 191 319 307 307 285 294 305 312 313 320 321 326 327 298 283 280 274 262 261 258 245 222 182 224 123 322 302 284 316 302 328 333 322
190 172 169 182 194 179 157 131 101 126 169 64 308 325 326 312 299 288 280 273 296 306 314 332 332 309 282 277 266 280 234 179 159 207 136 328 286 276 268 278 299 309 305
33 67 10 352 13 136 148 139 136 199 265 306 317 316 311 314 309 303 305 303 301 300 305 309 322 321 318 302 269 250 221 192 195 229 271 294 304 318 342 357 303 301 292
22 40 49 45 36 55 56 61 48 15 351 336 283 292 292 287 281 295 289 292 290 294 309 309 316 320 314 307 297 275 236 261 212 218 249 279 272 277 278 287 267 268 283
25 32 34 32 32 54 58 64 72 63 1 326 300 288 263 263 264 254 253 262 263 269 275 288 302 307 311 307 304 296 247 262 215 204 248 271 265 268 259 266 268 261 263
32 29 35 34 23 41 31 34 63 49 42 354 344 328 285 253 261 270 289 278 287 292 291 289 290 296 302 301 303 306 287 262 235 249 251 267 251 256 266 261 265 261 257
32 38 33 30 32 35 28 20 24 20 36 19 24 237 343 329 351 344 296 251 253 262 274 272 278 281 284 289 289 293 290 288 277 259 252 252 251 256 258 260 259 256 256
41 40 35 37 33 38 30 20 16 17 4 15 65 21 333 320 318 329 329 330 308 276 264 263 272 269 267 265 279 285 286 285 281 281 277 239 234 248 252 254 256 255 251
44 41 43 41 39 29 33 23 23 15 14 12 343 52 180 165 316 320 338 318 331 295 293 280 264 261 257 253 252 254 266 274 278 278 277 288 220 237 245 247 247 248 249
40 37 41 39 39 29 24 32 29 34 25 21 12 342 336 250 238 268 305 317 302 273 265 254 258 261 254 251 250 255 260 265 269 273 276 274 228 224 234 245 248 247 244
35 33 31 34 39 34 20 7 21 33 24 39 20 15 12 339 332 311 297 307 299 292 282 277 263 261 256 244 252 251 252 257 259 264 273 260 214 219 227 239 248 250 246
26 26 24 28 29 17 28 359 14 34 20 22 6 348 341 314 291 285 294 295 288 309 296 247 258 257 262 248 251 253 251 253 257 257 258 234 213 217 227 238 246 249 247
43 21 27 29 23 16 10 5 353 20 7 7 359 345 316 308 309 294 279 284 304 291 290 272 278 254 261 265 265 270 260 257 255 250 249 232 224 225 232 239 244 246 246
26 19 21 16 6 5 7 355 353 352 347 341 328 323 307 298 282 273 274 260 251 303 303 273 278 270 285 284 269 260 244 251 259 261 248 240 233 239 239 241 242 244 243
21 13 7 4 354 353 345 348 342 325 333 328 320 317 305 296 302 286 276 269 247 258 279 326 283 270 262 277 270 262 251 249 255 257 255 245 239 237 236 237 238 240 240
20 9 359 350 348 342 338 332 324 318 327 319 313 293 296 286 295 295 294 279 275 253 269 284 287 294 283 267 273 269 258 254 254 248 249 251 245 238 233 232 234 233 234
6 354 346 331 325 325 318 314 320 313 300 307 307 302 300 302 295 287 281 283 279 272 273 279 279 289 282 285 259 261 268 252 245 248 247 249 248 244 236 229 228 227 229
344 346 347 335 336 333 329 319 304 308 306 300 301 299 302 305 298 293 286 284 281 278 277 278 281 278 285 287 281 269 257 257 247 251 254 252 248 247 244 236 230 224 221
12 6 4 348 342 335 324 326 329 320 310 304 302 298 296 292 291 292 287 283 282 282 281 279 282 280 273 278 259 278 276 242 254 237 248 247 241 237 240 240 235 229 219
22 1 349 348 342 334 335 332 322 314 310 307 306 304 299 298 299 296 294 290 286 282 278 277 280 280 274 268 264 273 268 281 257 233 243 240 234 235 239 241 237 227 224
6 354 348 338 332 329 326 323 323 314 309 305 304 304 300 293 293 298 298 297 292 292 287 287 284 277 278 280 273 271 272 275 281 195 224 250 217 237 234 227 224 226 222
345 341 335 330 321 318 321 322 319 310 304 301 300 300 299 297 298 292 290 289 290 286 282 283 281 276 285 287 300 297 269 261 263 264 215 259 207 239 232 233 231 227 220
339 328 323 314 305 310 318 319 315 310 301 294 292 293 293 293 288 287 285 279 275 270 268 266 266 274 271 273 267 271 281 291 282 275 233 262 219 240 219 230 232 231 229
328 307 303 306 301 302 313 313 315 304 297 293 291 285 282 285 286 287 282 279 277 275 271 274 276 279 281 284 282 284 270 263 270 261 241 248 252 258 207 224 221 229 229
304 307 302 302 294 291 302 306 310 295 293 292 284 283 281 286 289 291 287 283 279 273 270 265 262 264 268 267 269 268 274 272 275 272 254 233 241 235 259 216 217 216 221